Flag Weather past 2 weeks in Papenburg, Lower Saxony, Germany

Now
44 °F

Fog.


Feels Like: 41 °F
Forecast: 43 / 52 °F
Wind: 5 mph from Southeast

Location: Emden-Koenigspolder

Current Time: Nov 22, 2014 at 6:06:11 PM

Latest Report: Nov 22, 2014 at 5:00 PM


Visibility: 4 mi

Pressure: 30.06 "Hg

Humidity: 87%

Dew point: 40 °F

Location of PapenburgLocation

Historic Weather in Papenburg — Graph

°F

Papenburg temperature yesterday

Maximum temperature yesterday: 45 °F (at 2:00 PM)
Minimum temperature yesterday: 28 °F (at 6:00 AM)
Average temperature yesterday: 34 °F

Past Weeks' High & Low Weather Summary

 TemperatureHumidityPressure
High54 °F (Nov 8, 3:00 PM)100% (Nov 13, 3:00 AM)30.37 "Hg (Nov 13, 3:00 AM)
Low28 °F (Nov 21, 6:00 AM)72% (Nov 7, 7:00 PM)29.47 "Hg (Nov 16, 2:00 PM)
Average46 °F91%29.85 "Hg
* Reported Nov 7 5:00 PM — Nov 22 5:00 PM, Papenburg, Weather by CustomWeather, © 2014

Note: Actual official high and low records may vary slightly from our data, if they occured in-between our weather recording intervals... More about our weather records

Advertising

Papenburg weather history for previous 24 hours

 ConditionsComfort  
Time TempWeatherWind HumidityBarometerVisibility
5:00 PM
Nov 22
44 °FFog.5 mph87%30.06 "Hg4 mi
4:00 PM44 °FOvercast.7 mph86%30.04 "Hg5 mi
3:00 PM44 °FOvercast.8 mph85%30.04 "Hg5 mi
2:00 PM43 °FLight rain. Overcast.7 mph85%30.06 "Hg4 mi
1:00 PM42 °FLight rain. Overcast.7 mph87%30.06 "Hg4 mi
12:00 PM42 °FFog.N/A88%30.09 "Hg4 mi
11:00 AM41 °FLow clouds.7 mph90%30.09 "Hg4 mi
9:00 AM40 °FOvercast.8 mph90%30.09 "Hg4 mi
8:00 AM39 °FFog.7 mph89%30.09 "Hg4 mi
7:00 AM39 °FFog.7 mph91%30.10 "Hg4 mi
6:00 AM39 °FFog.7 mph90%30.10 "Hg4 mi
5:00 AM39 °FFog.6 mph90%30.12 "Hg4 mi
3:00 AM38 °FOvercast.7 mph89%30.14 "Hg5 mi
2:00 AM38 °FOvercast.6 mph90%30.16 "Hg5 mi
1:00 AM37 °FOvercast.6 mph92%30.17 "Hg5 mi
12:00 AM36 °FOvercast.6 mph91%30.17 "Hg5 mi
11:00 PM
Nov 21
34 °FFog.3 mph95%30.19 "Hg4 mi
9:00 PM36 °FFog.5 mph97%30.21 "Hg3 mi
8:00 PM34 °FLow clouds.2 mph100%30.21 "Hg1 mi
7:00 PM36 °FLow clouds.5 mph100%30.22 "Hg0 mi
6:00 PM36 °FFog.5 mph95%30.22 "Hg3 mi
Weather by CustomWeather, © 2014

See weather overviewHow to use our weather pages